TimeEST,TemperatureF,Dew PointF,Humidity,Sea Level PressureIn,VisibilityMPH,Wind Direction,Wind SpeedMPH,Gust SpeedMPH,PrecipitationIn,Events,Conditions,WindDirDegrees,DateUTC
12:52 AM,37.9,30.0,73,30.64,10.0,NNE,5.8,-,N/A,,Clear,20,2012-11-18 05:52:00
1:52 AM,37.9,30.0,73,30.64,10.0,NNE,8.1,-,N/A,,Clear,20,2012-11-18 06:52:00
2:36 AM,37.4,30.2,75,30.64,10.0,North,10.4,-,N/A,,Mostly Cloudy,10,2012-11-18 07:36:00
2:44 AM,37.4,30.2,75,30.64,10.0,North,9.2,-,N/A,,Scattered Clouds,10,2012-11-18 07:44:00
2:52 AM,37.9,30.0,73,30.64,10.0,NNE,8.1,-,N/A,,Scattered Clouds,20,2012-11-18 07:52:00
3:52 AM,36.0,30.0,79,30.64,10.0,North,6.9,-,N/A,,Clear,10,2012-11-18 08:52:00
4:52 AM,35.1,28.9,78,30.66,10.0,North,9.2,-,N/A,,Clear,10,2012-11-18 09:52:00
5:52 AM,35.1,30.0,82,30.67,10.0,NNE,8.1,-,N/A,,Clear,30,2012-11-18 10:52:00
6:52 AM,35.1,28.9,78,30.67,10.0,NNE,9.2,-,N/A,,Clear,20,2012-11-18 11:52:00
7:52 AM,37.0,28.9,73,30.68,10.0,North,10.4,-,N/A,,Clear,10,2012-11-18 12:52:00
8:52 AM,41.0,30.0,65,30.68,10.0,North,9.2,-,N/A,,Clear,10,2012-11-18 13:52:00
9:52 AM,46.0,32.0,58,30.69,10.0,NE,8.1,-,N/A,,Clear,40,2012-11-18 14:52:00
10:52 AM,46.9,32.0,56,30.68,10.0,NE,11.5,-,N/A,,Clear,50,2012-11-18 15:52:00
11:52 AM,48.0,33.1,56,30.66,10.0,ENE,11.5,-,N/A,,Clear,70,2012-11-18 16:52:00
12:52 PM,48.9,34.0,56,30.63,10.0,East,9.2,-,N/A,,Clear,80,2012-11-18 17:52:00
1:52 PM,48.9,35.1,59,30.62,10.0,East,8.1,-,N/A,,Clear,100,2012-11-18 18:52:00
2:52 PM,48.0,35.1,61,30.61,10.0,East,4.6,-,N/A,,Clear,100,2012-11-18 19:52:00
3:52 PM,46.9,35.1,63,30.62,10.0,East,4.6,-,N/A,,Clear,100,2012-11-18 20:52:00
4:52 PM,46.9,35.1,63,30.61,10.0,ENE,4.6,-,N/A,,Clear,60,2012-11-18 21:52:00
5:52 PM,45.0,36.0,71,30.61,10.0,North,3.5,-,N/A,,Clear,360,2012-11-18 22:52:00
6:52 PM,44.1,35.1,71,30.61,10.0,North,4.6,-,N/A,,Scattered Clouds,360,2012-11-18 23:52:00
7:52 PM,42.1,35.1,76,30.62,10.0,North,4.6,-,N/A,,Clear,10,2012-11-19 00:52:00
8:52 PM,42.1,33.1,70,30.61,10.0,NNE,8.1,-,N/A,,Clear,20,2012-11-19 01:52:00
9:52 PM,42.1,32.0,67,30.61,10.0,NE,10.4,-,N/A,,Clear,50,2012-11-19 02:52:00
10:52 PM,39.9,30.9,70,30.60,10.0,NNE,6.9,-,N/A,,Clear,30,2012-11-19 03:52:00
11:52 PM,39.0,30.9,73,30.60,10.0,NNE,6.9,-,N/A,,Clear,20,2012-11-19 04:52:00